Mt. Clemens, MI

7:53 AM EDT on May 29, 2017 (GMT -0400)
Selfridge Angb

Weather History for KMTC - September, 2013

Change the Weather History Date:

Thursday, September 26, 2013

  Actual Average Record
Temperature  
Mean Temperature 60 °F -  
Max Temperature 73 °F 67 °F 91 °F (1998)
Min Temperature 46 °F 50 °F 36 °F (1965)
Degree Days  
Heating Degree Days 6    
Growing Degree Days 10 (Base 50)    
Moisture  
Dew Point 48 °F    
Average Humidity 86    
Maximum Humidity 100    
Minimum Humidity 41    
Precipitation  
Precipitation 0.00 in - - ()
Sea Level Pressure  
Sea Level Pressure 30.05 in    
Wind  
Wind Speed 4 mph (North)    
Max Wind Speed 8 mph    
Max Gust Speed -    
Visibility 9 miles    
Events      
Averages and records for this station are not official NWS values.
T = Trace of Precipitation, MM = Missing Value Source: NWS Daily Summary

Daily Weather History Graph

Daily Weather History Graph

Search for Another Location

Airport or City:

Trip Planner

Search our weather history database for the weather conditions in past years. The results will help you decide how hot, cold, wet, or windy it might be!

Date:

Astronomy

Sep. 26, 2013 Rise Set
Actual Time 7:23 AM EDT 7:21 PM EDT
Civil Twilight 6:55 AM EDT 7:49 PM EDT
Nautical Twilight 6:22 AM EDT 8:21 PM EDT
Astronomical Twilight 5:48 AM EDT 8:55 PM EDT
Moon No Moon Rise 2:21 PM EDT (9/26)
Length of Visible Light 12h 54m
Length of Day
11h 57m
Waning Gibbous, 55% of the Moon is Illuminated
Sep 26
Waning Gibbous
Sep 26
Last Quarter
Oct 4
New
Oct 11
First Quarter
Oct 18
Full

Hourly Weather History & Observations

Time (EDT) Temp. Windchill Dew Point Humidity Pressure Visibility Wind Dir Wind Speed Gust Speed Precip Events Conditions
12:58 AM 48.4 °F - 46.6 °F 93% 30.01 in 10.0 mi NNW 3.5 mph - N/A   Clear
1:58 AM 48.0 °F - 46.9 °F 96% 30.01 in 10.0 mi NNW 4.6 mph - N/A   Clear
2:33 AM 48.2 °F - 48.2 °F 100% 30.00 in 5.0 mi NW 2.3 mph - N/A   Clear
2:43 AM 48.2 °F - 48.2 °F 100% 30.00 in 10.0 mi NW 3.5 mph - N/A   Clear
2:58 AM 46.2 °F 45.0 °F 45.9 °F 99% 30.01 in 10.0 mi NW 3.5 mph - N/A   Clear
3:23 AM 46.4 °F - 46.4 °F 100% 30.00 in 9.0 mi NW 2.3 mph - N/A   Clear
3:28 AM 48.2 °F - 46.4 °F 93% 30.00 in 9.0 mi NW 3.5 mph - N/A   Clear
3:33 AM 48.2 °F - 48.2 °F 100% 30.00 in 8.0 mi NW 2.3 mph - N/A   Clear
3:43 AM 48.2 °F - 48.2 °F 100% 30.00 in 10.0 mi NW 3.5 mph - N/A   Clear
3:48 AM 48.2 °F - 48.2 °F 100% 30.00 in 9.0 mi NNW 3.5 mph - N/A   Clear
3:58 AM 47.3 °F - 46.9 °F 99% 30.01 in 10.0 mi NNW 3.5 mph - N/A   Clear
4:08 AM 48.2 °F - 48.2 °F 100% 30.00 in 8.0 mi NNW 2.3 mph - N/A   Clear
4:13 AM 48.2 °F - 48.2 °F 100% 30.00 in 5.0 mi NNW 2.3 mph - N/A   Clear
4:18 AM 46.4 °F - 46.4 °F 100% 30.01 in 4.0 mi NNW 2.3 mph - N/A   Clear
4:23 AM 46.4 °F - 46.4 °F 100% 30.01 in 5.0 mi NW 2.3 mph - N/A   Clear
4:33 AM 46.4 °F 45.2 °F 46.4 °F 100% 30.01 in 3.0 mi North 3.5 mph - N/A   Clear
4:38 AM 46.4 °F 45.2 °F 46.4 °F 100% 30.01 in 4.0 mi North 3.5 mph - N/A   Clear
4:43 AM 46.4 °F 44.3 °F 46.4 °F 100% 30.01 in 1.5 mi North 4.6 mph - N/A   Clear
4:48 AM 46.4 °F 44.3 °F 46.4 °F 100% 30.01 in 1.2 mi NNW 4.6 mph - N/A   Clear
4:53 AM 46.4 °F 43.5 °F 46.4 °F 100% 30.01 in 2.5 mi NNW 5.8 mph - N/A   Clear
4:58 AM 46.6 °F - 46.4 °F 99% 30.02 in 9.0 mi NNW 5.8 mph - N/A   Clear
5:03 AM 48.2 °F - 46.4 °F 93% 30.01 in 10.0 mi NNW 5.8 mph - N/A   Clear
5:13 AM 46.4 °F 43.5 °F 46.4 °F 100% 30.02 in 9.0 mi North 5.8 mph - N/A   Clear
5:18 AM 46.4 °F 43.5 °F 46.4 °F 100% 30.02 in 10.0 mi North 5.8 mph - N/A   Clear
5:58 AM 46.8 °F - 46.4 °F 99% 30.04 in 8.0 mi North 4.6 mph - N/A   Clear
6:03 AM 46.4 °F 43.5 °F 46.4 °F 100% 30.03 in 7.0 mi North 5.8 mph - N/A   Clear
6:08 AM 46.4 °F 43.5 °F 46.4 °F 100% 30.03 in 7.0 mi North 5.8 mph - N/A   Clear
6:23 AM 46.4 °F 44.3 °F 46.4 °F 100% 30.03 in 10.0 mi NNW 4.6 mph - N/A   Clear
6:55 AM 46.6 °F - 46.4 °F 99% 30.07 in 12.0 mi NNW 4.6 mph - N/A   Clear
7:55 AM 47.8 °F - 47.7 °F 99% 30.09 in 12.0 mi NNW 4.6 mph - N/A   Clear
8:55 AM 53.4 °F - 52.7 °F 97% 30.11 in 12.0 mi North 4.6 mph - N/A   Clear
9:55 AM 60.4 °F - 49.8 °F 68% 30.12 in 12.0 mi NE 4.6 mph - N/A   Clear
10:55 AM 65.3 °F - 49.8 °F 57% 30.12 in 12.0 mi ENE 4.6 mph - N/A   Clear
11:57 AM 69.1 °F - 51.3 °F 53% 30.12 in 12.0 mi ENE 4.6 mph - N/A   Clear
12:55 PM 70.0 °F - 50.0 °F 49% 30.12 in 12.0 mi ESE 4.6 mph - N/A   Clear
1:55 PM 71.8 °F - 50.5 °F 47% 30.11 in 12.0 mi ENE 4.6 mph - N/A   Clear
2:55 PM 72.9 °F - 50.4 °F 45% 30.10 in 12.0 mi ENE 4.6 mph - N/A   Clear
3:55 PM 73.8 °F - 50.5 °F 44% 30.10 in 12.0 mi East 5.8 mph - N/A   Clear
4:55 PM 73.0 °F - 48.0 °F 41% 30.10 in 12.0 mi East 8.1 mph - N/A   Clear
5:55 PM 72.1 °F - 46.9 °F 41% 30.10 in 12.0 mi ENE 4.6 mph - N/A   Clear
6:55 PM 66.7 °F - 48.2 °F 51% 30.12 in 12.0 mi NE 5.8 mph - N/A   Clear
7:55 PM 59.4 °F - 48.6 °F 67% 30.13 in 12.0 mi NNE 5.8 mph - N/A   Clear
8:58 PM 60.3 °F - 50.2 °F 69% 30.14 in 10.0 mi Calm Calm - N/A   Clear
9:58 PM 59.9 °F - 54.0 °F 81% 30.14 in 10.0 mi ENE 8.1 mph - N/A   Clear
10:58 PM 54.0 °F - 50.4 °F 88% 30.15 in 10.0 mi NE 5.8 mph - N/A   Clear
11:58 PM 54.1 °F - 51.4 °F 91% 30.15 in 10.0 mi NW 3.5 mph - N/A   Clear